Waarnemingen

Advertentie
Mijn weer
Cap Corse, Frankrijk (7785): temperatuur & dauwpunt: 13.07.2018 21:00:00 - 19.07.2018 21:00:00 (CEST)Cap Corse, Frankrijk (7785): windsnelheid & windstoten: 13.07.2018 21:00:00 - 19.07.2018 21:00:00 (CEST)Cap Corse, Frankrijk (7785): windrichting: 13.07.2018 21:00:00 - 19.07.2018 21:00:00 (CEST)Cap Corse, Frankrijk (7785): luchtdruk: 13.07.2018 21:00:00 - 19.07.2018 21:00:00 (CEST)Cap Corse, Frankrijk (7785): zicht: 13.07.2018 21:00:00 - 19.07.2018 21:00:00 (CEST)Cap Corse, Frankrijk (7785): neerslag: 13.07.2018 21:00:00 - 19.07.2018 21:00:00 (CEST)
Datum & Tijd tt [°C] td [°C] ff [km/u] ff [kn] fx [km/u] fx [kn] dd ppp [hPa] vv [km] rr [mm]
19.07.2018 21:00:00 24,8 19,2 22 12 43 23 WZW 1014,1 - 0,0
19.07.2018 20:00:00 26,0 19,9 15 8 39 21 WZW 1013,8 20 0,0
19.07.2018 19:00:00 27,3 18,6 19 11 41 22 W 1013,8 - 0,0
19.07.2018 18:00:00 28,2 17,7 17 9 42 23 W 1013,9 - 0,0
19.07.2018 17:00:00 28,7 18,5 15 8 38 20 WZW 1014,2 20 0,0
19.07.2018 16:00:00 29,3 17,8 17 9 40 22 W 1014,4 - 0,0
19.07.2018 15:00:00 29,3 19,0 21 11 45 25 W 1014,5 - 0,0
19.07.2018 14:00:00 29,5 18,6 18 10 36 19 WZW 1014,6 20 0,0
19.07.2018 13:00:00 29,6 14,6 17 9 31 17 WZW 1014,8 - 0,0
19.07.2018 12:00:00 28,3 19,0 18 10 36 19 WZW 1014,6 - 0,0
19.07.2018 11:00:00 28,2 18,6 19 11 32 17 W 1014,4 16 0,0
19.07.2018 10:00:00 28,2 15,1 14 8 23 12 W 1013,9 - 0,0
19.07.2018 09:00:00 28,9 15,4 4 2 13 7 W 1013,7 - 0,0
19.07.2018 08:00:00 27,1 16,1 5 3 9 5 WZW 1013,5 15 0,0
19.07.2018 07:00:00 25,9 13,1 3 2 24 13 Z 1013,4 - 0,0
19.07.2018 06:00:00 23,8 11,1 13 7 17 9 OZO 1013,4 - 0,0
19.07.2018 05:00:00 24,9 12,1 7 4 41 22 O 1013,7 - 0,0
19.07.2018 04:00:00 25,5 12,3 32 17 46 25 ZW 1013,6 - 0,0
19.07.2018 03:00:00 23,4 19,1 18 10 40 22 WZW 1014,3 - 0,0
19.07.2018 02:00:00 23,8 20,9 20 11 44 24 WZW 1014,6 - 0,0
19.07.2018 01:00:00 24,0 21,1 24 13 48 26 WZW 1014,6 - 0,0
19.07.2018 00:00:00 24,0 20,9 20 11 38 20 WZW 1014,7 - 0,0
18.07.2018 23:00:00 23,2 20,2 6 3 10 5 O 1014,4 - 0,0
18.07.2018 22:00:00 23,4 20,1 2 1 16 9 N 1014,3 - 0,0
18.07.2018 21:00:00 24,6 21,3 14 8 25 14 W 1013,9 - 0,0
18.07.2018 20:00:00 26,5 21,0 11 6 22 12 W 1013,8 15 0,0
18.07.2018 19:00:00 27,3 21,1 10 5 25 13 ONO 1014,0 - 0,0
18.07.2018 18:00:00 26,9 21,0 10 6 18 10 ONO 1014,6 - 0,0
18.07.2018 17:00:00 27,3 21,1 15 8 28 15 ONO 1015,0 15 0,0
18.07.2018 16:00:00 27,3 21,1 17 9 26 14 ONO 1015,1 - 0,0
18.07.2018 15:00:00 27,8 21,1 19 10 35 19 ONO 1015,5 - 0,0
18.07.2018 14:00:00 27,1 21,4 24 13 34 19 O 1015,1 - 0,0
18.07.2018 13:00:00 28,1 21,9 25 13 37 20 ONO 1015,6 - 0,0
18.07.2018 12:00:00 27,2 21,2 23 13 37 20 ONO 1015,6 - 0,0
18.07.2018 11:00:00 27,7 21,0 26 14 35 19 ONO 1015,4 16 0,0
18.07.2018 10:00:00 28,2 20,0 17 9 25 14 O 1015,2 - 0,0
18.07.2018 09:00:00 26,4 20,0 11 6 16 9 ONO 1015,2 - 0,0
18.07.2018 08:00:00 25,4 21,3 11 6 16 9 NO 1015,0 20 0,0
18.07.2018 07:00:00 23,7 20,2 10 5 21 11 W 1014,9 - 0,0
18.07.2018 06:00:00 21,4 18,0 8 4 10 6 WZW 1014,6 - 0,0
18.07.2018 05:00:00 21,8 18,4 8 4 20 11 O 1014,7 20 0,0
18.07.2018 04:00:00 22,5 20,0 11 6 34 18 WZW 1014,3 - 0,0
18.07.2018 03:00:00 23,3 20,4 24 13 37 20 WZW 1014,5 - 0,0
18.07.2018 02:00:00 23,6 18,5 17 9 38 21 WZW 1014,7 - 0,0
18.07.2018 01:00:00 24,0 18,2 21 12 48 26 WZW 1014,6 - 0,0
18.07.2018 00:00:00 24,1 17,1 25 13 59 32 ZW 1014,6 - 0,0
17.07.2018 23:00:00 23,9 18,3 35 19 68 37 ZW 1013,6 - 0,0
17.07.2018 22:00:00 23,7 20,0 34 19 72 39 WZW 1013,0 - 0,0
17.07.2018 21:00:00 24,0 20,3 29 16 59 32 WZW 1012,6 - 0,0
17.07.2018 20:00:00 26,0 18,9 28 15 53 29 WZW 1012,5 - 0,0
17.07.2018 19:00:00 26,8 19,4 22 12 53 29 WZW 1012,5 - 0,0
17.07.2018 18:00:00 26,7 20,3 22 12 49 26 WZW 1012,5 - 0,0
17.07.2018 17:00:00 27,1 20,2 27 15 53 29 W 1013,0 25 0,0
17.07.2018 16:00:00 26,7 19,8 29 15 51 28 WZW 1013,4 - 0,0
17.07.2018 15:00:00 27,0 19,9 32 17 56 31 WZW 1013,0 - 0,0
17.07.2018 14:00:00 27,2 19,3 29 16 54 29 WZW 1013,1 30 0,0
17.07.2018 13:00:00 26,8 18,9 27 14 50 27 WZW 1013,2 - 0,0
17.07.2018 12:00:00 26,6 19,0 31 17 53 29 WZW 1012,8 - 0,0
17.07.2018 11:00:00 26,0 18,4 29 16 52 28 WZW 1012,7 30 0,0
17.07.2018 10:00:00 25,5 18,2 34 18 64 35 WZW 1012,1 - 0,0
17.07.2018 09:00:00 24,5 18,7 38 20 61 33 W 1011,7 - 0,0
17.07.2018 08:00:00 23,5 17,7 35 19 68 37 W 1011,5 15 0,0
17.07.2018 07:00:00 22,7 18,2 39 21 67 36 WZW 1010,9 - 0,0
17.07.2018 06:00:00 22,3 17,9 31 17 64 35 WZW 1011,1 - 0,0
17.07.2018 05:00:00 22,6 17,7 46 25 67 36 W 1010,6 - 0,0
17.07.2018 04:00:00 22,5 18,1 50 27 66 36 W 1009,8 - 0,0
17.07.2018 03:00:00 21,6 16,8 39 21 61 33 W 1010,2 - 0,0
17.07.2018 02:00:00 21,6 16,8 26 14 37 20 W 1010,2 - 0,0
17.07.2018 01:00:00 21,6 17,0 25 14 38 21 W 1010,0 - 0,0
17.07.2018 00:00:00 20,9 16,9 14 8 31 17 W 1010,1 - 0,0
16.07.2018 23:00:00 20,8 17,4 19 11 31 17 NNW 1010,2 - 0,0
16.07.2018 22:00:00 19,7 16,9 24 13 69 37 ZO 1010,8 - 0,0
16.07.2018 21:00:00 20,2 17,0 57 31 - - WNW 1010,0 - -
16.07.2018 20:00:00 25,7 21,4 32 18 48 26 W 1007,8 - 0,0
16.07.2018 19:00:00 26,8 20,6 37 20 59 32 W 1007,8 - 0,0
16.07.2018 18:00:00 28,1 20,1 36 19 63 34 WZW 1009,0 - 0,0
16.07.2018 17:00:00 31,6 14,7 32 17 56 30 WZW 1008,4 15 0,0
16.07.2018 16:00:00 32,1 20,0 15 8 63 34 ZZO 1008,3 - 0,0
16.07.2018 15:00:00 29,0 21,5 37 20 60 32 OZO 1008,5 - 0,0
16.07.2018 14:00:00 28,1 20,9 40 21 59 32 ZO 1009,2 15 0,0
16.07.2018 13:00:00 28,2 20,0 40 22 59 32 ZO 1010,2 - 0,0
16.07.2018 12:00:00 28,9 19,0 29 16 52 28 ZO 1011,0 - 0,0
16.07.2018 11:00:00 27,2 18,2 23 13 40 21 ZZO 1012,4 15 0,0
16.07.2018 10:00:00 26,3 20,8 23 12 31 17 ZO 1012,0 - 0,0
16.07.2018 09:00:00 27,0 18,8 10 6 19 10 O 1012,6 - 0,0
16.07.2018 08:00:00 25,6 20,4 6 3 10 6 O 1013,1 15 0,0
16.07.2018 07:00:00 23,4 19,3 3 1 10 5 ZW 1013,6 - 0,0
16.07.2018 06:00:00 22,4 17,1 3 1 20 11 ZW 1013,1 - 0,0
16.07.2018 05:00:00 22,6 19,4 4 2 26 14 WZW 1013,5 15 0,0
16.07.2018 04:00:00 23,8 20,1 15 8 24 13 W 1014,1 - 0,0
16.07.2018 03:00:00 22,8 18,8 11 6 14 8 WZW 1014,2 - 0,0
16.07.2018 02:00:00 23,4 18,7 11 6 14 7 WZW 1014,2 - 0,0
16.07.2018 01:00:00 23,5 17,5 3 2 19 10 ZZO 1013,9 - 0,0
16.07.2018 00:00:00 25,0 17,0 14 8 40 22 WZW 1014,4 - 0,0
15.07.2018 23:00:00 26,0 16,0 13 7 29 15 ZW 1014,6 - 0,0
15.07.2018 22:00:00 25,6 15,6 17 9 40 22 ZZW 1014,1 - 0,0
15.07.2018 21:00:00 26,0 16,3 21 11 49 26 ZW 1013,4 - 0,0
15.07.2018 20:00:00 27,0 17,5 25 14 53 29 ZW 1013,0 15 0,0
15.07.2018 19:00:00 27,3 20,1 29 16 54 29 W 1013,3 - 0,0
15.07.2018 18:00:00 27,5 20,6 31 17 56 30 WZW 1013,6 - 0,0
15.07.2018 17:00:00 28,1 20,1 28 15 54 29 W 1013,9 15 0,0
15.07.2018 16:00:00 29,0 19,6 27 14 52 28 WZW 1014,1 - 0,0
15.07.2018 15:00:00 29,0 18,5 24 13 45 25 W 1014,4 - 0,0
15.07.2018 14:00:00 28,8 19,1 24 13 45 24 WZW 1014,5 15 0,0
15.07.2018 13:00:00 27,7 21,0 23 12 48 26 WZW 1014,7 - 0,0
15.07.2018 12:00:00 27,3 21,3 26 14 47 25 WZW 1015,0 - 0,0
15.07.2018 11:00:00 27,4 21,4 28 15 55 30 WZW 1014,8 15 0,0
15.07.2018 10:00:00 26,2 21,2 31 17 56 31 ZW 1014,4 - 0,0
15.07.2018 09:00:00 25,6 21,1 34 18 56 31 WZW 1014,5 - 0,0
15.07.2018 08:00:00 24,9 21,4 32 18 52 28 WZW 1014,1 16 0,0
15.07.2018 07:00:00 24,1 21,2 26 14 55 30 WZW 1014,0 - 0,0
15.07.2018 06:00:00 23,6 20,7 31 17 46 25 WZW 1013,7 - 0,0
15.07.2018 05:00:00 23,5 21,4 28 15 42 23 W 1013,7 14 0,0
15.07.2018 04:00:00 25,1 19,5 29 15 45 24 W 1013,5 - 0,0
15.07.2018 03:00:00 24,2 19,7 21 11 41 22 WZW 1013,6 - 0,0
15.07.2018 02:00:00 26,4 16,9 23 12 53 29 WZW 1013,4 - 0,0
15.07.2018 01:00:00 25,6 19,0 20 11 54 29 ZW 1013,8 - 0,0
15.07.2018 00:00:00 25,8 18,5 19 10 52 28 ZW 1014,0 - 0,0
14.07.2018 23:00:00 25,2 20,2 28 15 58 31 WZW 1013,9 - 0,0
14.07.2018 22:00:00 27,7 15,0 31 17 66 36 WZW 1013,8 - 0,0
14.07.2018 21:00:00 27,9 15,2 42 23 72 39 ZW 1013,1 - 0,0
14.07.2018 20:00:00 28,0 17,8 40 22 68 37 ZW 1012,6 - 0,0
14.07.2018 19:00:00 28,7 20,2 36 19 71 38 ZW 1012,6 - 0,0
14.07.2018 18:00:00 33,6 18,9 7 4 29 16 WNW 1012,7 - 0,0
14.07.2018 17:00:00 33,9 17,2 16 9 44 24 ZZO 1012,7 15 0,0
14.07.2018 16:00:00 34,0 16,4 32 18 51 27 ZZO 1012,8 - 0,0
14.07.2018 15:00:00 31,8 19,4 36 20 50 27 ZZO 1013,9 - 0,0
14.07.2018 14:00:00 33,0 21,2 20 11 34 18 OZO 1014,2 - 0,0
14.07.2018 13:00:00 31,6 20,2 5 3 14 7 N 1015,0 - 0,0
14.07.2018 12:00:00 30,9 19,3 8 5 21 11 W 1015,3 - 0,0
14.07.2018 11:00:00 30,9 20,8 9 5 43 23 ZO 1015,8 - 0,0
14.07.2018 10:00:00 28,6 20,9 19 11 39 21 O 1016,2 - 0,0
14.07.2018 09:00:00 26,5 21,3 23 12 40 22 OZO 1016,8 - 0,0
14.07.2018 08:00:00 25,2 20,0 13 7 21 11 O 1016,9 15 0,0
14.07.2018 07:00:00 23,2 19,6 0 0 11 6 N 1017,3 - 0,0
14.07.2018 06:00:00 23,0 19,2 8 4 21 11 O 1016,9 - 0,0
14.07.2018 05:00:00 21,7 16,6 7 4 9 5 W 1017,2 - 0,0
14.07.2018 04:00:00 22,0 15,6 5 3 7 4 WNW 1016,8 - 0,0
14.07.2018 03:00:00 22,2 14,6 0 0 11 6 N 1016,9 - 0,0
14.07.2018 02:00:00 22,6 15,4 8 4 13 7 O 1017,1 - 0,0
14.07.2018 01:00:00 22,9 12,5 6 3 16 9 O 1017,5 - 0,0
14.07.2018 00:00:00 22,8 14,1 12 6 14 7 W 1017,7 - 0,0
13.07.2018 23:00:00 23,3 13,2 5 3 16 9 W 1017,1 - 0,0
13.07.2018 22:00:00 23,5 17,7 4 2 16 8 OZO 1017,4 - 0,0
13.07.2018 21:00:00 25,5 14,9 4 2 26 14 NO 1016,4 - 0,0

tt = temperatuur
td = dauwpunt
ff = windsnelheid
fx = windstoten
dd = windrichting
ppp = luchtdruk
vv = zicht
rr = neerslag

Weerstations in de omgeving